Regional Weather Roundup
Issued by NWS

Home | Current Version | Previous Version | Graphics & Text | Print | Product List | Glossary On
Versions: 1 2 3 4 5 6 7 8 9 10 11 12 13 14 15 16 17 18 19 20 21 22 23 24 25 26 27 28 29 30 31 32 33 34 35 36 37 38 39 40 41 42 43 44 45 46 47 48 49 50
000
ASUS45 KCYS 181910
RWRWY

WYOMING REGIONAL WEATHER ROUNDUP
NATIONAL WEATHER SERVICE CHEYENNE WY
100 PM MDT FRI AUG 18 2017

NOTE:  "FAIR" INDICATES FEW OR NO CLOUDS BELOW 12,000 FEET
WITH NO SIGNIFICANT WEATHER AND/OR OBSTRUCTIONS TO VISIBILITY.

WYZ001-182000-
YELLOWSTONE NATIONAL PARK

CITY           SKY/WX    TMP DP  RH WIND       PRES   REMARKS
LK YELLOWSTONE   N/A     68  41  37 CALM      30.34F
W YELLOWSTONE  NOT AVBL

$$
WYZ002>013-054>058-071-098>099-182000-
NORTHERN WYOMING

CITY           SKY/WX    TMP DP  RH WIND       PRES   REMARKS
JACKSON        FAIR      66  37  34 W8        30.30F
CODY           FAIR      81  44  27 N10       30.11F
GREYBULL       FAIR      84  36  18 E6        30.04F
WORLAND        FAIR      85  38  18 W5        30.06F
SHERIDAN       FAIR      88  34  14 VRB3      30.04F
BUFFALO        FAIR      85  31  14 S8        30.12F
GILLETTE       FAIR      84  31  14 NW5       30.08F
HULETT         MOCLDY    81  37  21 W9        30.09F
NEWCASTLE      FAIR      81  34  18 W7        30.10F

$$
WYZ014>020-022>026-101>103-182000-
CENTRAL WYOMING

CITY           SKY/WX    TMP DP  RH WIND       PRES   REMARKS
BIG PINEY      FAIR      75  33  21 VRB5      30.30F
PINEDALE       FAIR      73  28  19 NE3       30.32F
DUBOIS         FAIR      72  28  20 W14G25    30.27F
LANDER           N/A    N/A N/A N/A MISG      30.15F
RIVERTON       FAIR      79  34  19 VRB7      30.17F
CASPER         FAIR      81  37  20 S8G18     30.17F
DOUGLAS        FAIR      83  35  18 W12       30.15F

$$
WYZ021-027>030-104>119-182000-
SOUTHERN WYOMING

CITY           SKY/WX    TMP DP  RH WIND       PRES   REMARKS
EVANSTON       FAIR      79  31  17 W16G25    30.33S
KEMMERER         N/A     77  30  18 SW16G23   30.33F
FORT BRIDGER   FAIR      82  28  13 SW12G21   30.34F
ROCK SPRINGS   FAIR      79  29  16 W15G23    30.29F
RAWLINS        FAIR      78  31  17 W16G24    30.29F
SARATOGA       FAIR      77  32  19 W7G21     30.32F
LARAMIE        FAIR      73  33  23 VRB5      30.31F
CHEYENNE       FAIR      81  39  22 CALM      30.24F
TORRINGTON     FAIR      86  32  14 S5        30.10F
PINE BLUFFS    FAIR      79  41  25 CALM      30.19F

$$



USA.gov is the U.S. government's official web portal to all federal, state and local government web resources and services.